Location: Unspecified
(0.0000°N, 0.0000°E)
Time: 22:23:18
(UTC+00:00)

N. Korean satellite - Pass Details

Date: 19 July 2019
Orbit: 456 x 508 km, 97.2° (Epoch: 21 July)

Event Time Altitude Azimuth Distance (km) Brightness Sun altitude
Rises 18:28:53 0° 204° (SSW) 2,472 10.2 -5.3°
Reaches altitude 10° 18:32:14 10° 240° (WSW) 1,593 9.8 -6.0°
Maximum altitude 18:33:17 11° 259° (WSW) 1,521 10.1 -6.3°
Drops below altitude 10° 18:34:21 10° 277° (W) 1,591 10.8 -6.5°
Sets 18:37:42 0° 314° (NW) 2,463 11.6 -7.3°
